Volver al catálogo

STARLINK-33669

ActivoComunicacionesVLEO
NORAD 63283·PAYLOAD·🇺🇸 United States

Lanzado Mar 15, 2025 desde Cape Canaveral Space Force Station

Loading…

Próximos Pases (próximas 24 horas)

TLE

ActualizadoSource: CelesTrak SupGP

Época: Sep 15, 2026, 03:55 UTC

1 63283C 25053U   26258.16368056 -.00029013  00000+0 -10511-2 0  2589
2 63283  42.9992 251.3184 0001148 267.0838 167.7065 15.27585940    10

Sigue STARLINK-33669 en tiempo real con AllMySat

Download on the App Store